Location: Karlovy Vary
(50.2170°N, 12.9000°E)
Time: 03:40:47
(UTC+01:00)

ISS - Visible Passes

Search period start: 15 December 2017 00:00
Search period end: 25 December 2017 00:00
Orbit: 403 x 406 km, 51.6° (Epoch: 15 December)

Date Brightness Start Highest point End Pass type
(mag) Time Alt. Az. Time Alt. Az. Time Alt. Az.
15 Dec -1.1 17:56:35 10° W 17:59:01 19° SW 18:01:25 10° S visible
16 Dec -1.7 17:04:02 10° W 17:06:57 29° SSW 17:09:51 10° SSE visible
18 Dec -0.6 16:56:29 10° W 16:58:38 16° SW 17:00:46 10° S visible
